Regional Weather Roundup
Issued by NWS Jackson, KY

Home | Current Version | Previous Version | Graphics & Text | Print | Product List | Glossary On
Versions: 1 2 3 4 5 6 7 8 9 10 11 12 13 14 15 16 17 18 19 20 21 22 23 24 25 26 27 28 29 30 31 32 33 34 35 36 37 38 39 40 41 42 43 44 45 46 47 48 49 50
000
ASUS43 KJKL 310110
RWRJKL

EAST KENTUCKY HOURLY WEATHER ROUNDUP
NATIONAL WEATHER SERVICE JACKSON KY
900 PM EDT SUN AUG 30 2015

NOTE: "FAIR" INDICATES FEW OR NO CLOUDS BELOW 12,000 FEET WITH
NO SIGNIFICANT WEATHER AND/OR OBSTRUCTIONS TO VISIBILITY.

* THESE REPORTS ARE NOT UNDER NWS QUALITY CONTROL AND MAY NOT
  REPORT WEATHER SUCH AS PRECIPITATION AND FOG.

KYZ079-080-083-085-087-088-110-112-115-119-120-310200
...EASTERN KENTUCKY...

CITY           SKY/WX    TMP DP  RH WIND       PRES   REMARKS
JACKSON        MOCLDY    75  65  70 CALM      30.12R
LONDON         CLOUDY    74  63  68 CALM      30.12R
SOMERSET*      MOCLDY    72  64  78 CALM      30.11R
MONTICELLO*    CLOUDY    71  69  93 CALM      30.13R
MIDDLESBORO*   CLOUDY    71  68  89 W3        30.12R
HAZARD APT*    CLEAR     72  70  94 CALM      30.12R
PIKEVILLE APT* CLEAR     75  63  64 CALM      30.14R
BIG SANDY*     PTCLDY    71  68  90 CALM      30.12R
MOREHEAD APT*    N/A     72  64  78 S5        30.12R
$$

KYZ035-036-041-042-044-050-067-078-099-310200
...CENTRAL KENTUCKY...

CITY           SKY/WX    TMP DP  RH WIND       PRES   REMARKS
MT STERLING*   MOCLDY    70  66  88 SW3       30.12R
FLEMING/MASON* CLEAR     73  66  78 SW5       30.10R
DANVILLE*      MOCLDY    72  64  78 CALM      30.11S
RICHMOND*      MOCLDY    73  63  68 CALM      30.10S
LEXINGTON      CLOUDY    75  67  76 CALM      30.10R
FRANKFORT      CLOUDY    73  68  84 CALM      30.08R
$$

KYZ091>093-OHZ055-061-077-WVZ005-015-034-035-042-310200
...SOUTHERN OHIO/WEST VIRGINIA...

CITY           SKY/WX    TMP DP  RH WIND       PRES   REMARKS
COVINGTON      MOCLDY    75  68  78 S3        30.07R
COLUMBUS       MOCLDY    79  67  66 SW7       30.05R
DAYTON         PTCLDY    74  64  71 SW9       30.08R
WILMINGTON     MOCLDY    70  62  76 CALM      30.08R
HUNTINGTON     PTCLDY    75  65  70 S3        30.09R
CHARLESTON     PTCLDY    73  69  87 CALM      30.11R
PINEVILLE*     PTCLDY    69  69 100 MISG      30.20S
BECKLEY        MOCLDY    70  62  76 CALM      30.19R
BLUEFIELD      CLOUDY    72  61  68 SE5       30.23R
$$

VAZ002-007-008-TNZ017-027-036-066-071-310200
...SOUTHWEST VIRGINIA/EAST TENNESSEE...

CITY           SKY/WX    TMP DP  RH WIND       PRES   REMARKS
WISE*          CLOUDY    70  63  78 NE3       30.21R
JONESVILLE*    CLOUDY    72  66  83 CALM      30.14R
ABINGDON*      MOCLDY    71  62  73 CALM      30.17R
BRISTOL        CLOUDY    72  60  66 CALM      30.13R
KNOXVILLE      CLOUDY    68  64  87 CALM      30.06S
OAK RIDGE      CLOUDY    75  66  73 CALM      30.12R
CROSSVILLE     CLOUDY    72  66  81 CALM      30.15R
NASHVILLE      MOCLDY    72  63  73 SE6       30.08S
$$

...KEY TO REMARKS...
VSB - VISIBILITY IN MILES
WCI - WIND CHILL INDEX
HX  - HEAT INDEX

$$


USA.gov is the U.S. government's official web portal to all federal, state and local government web resources and services.